TimeEDT,TemperatureF,Dew PointF,Humidity,Sea Level PressureIn,VisibilityMPH,Wind Direction,Wind SpeedMPH,Gust SpeedMPH,PrecipitationIn,Events,Conditions,WindDirDegrees,DateUTC
12:53 AM,48.0,36.0,63,29.92,10.0,WNW,10.4,-,N/A,,Overcast,290,2013-05-26 04:53:00
1:53 AM,48.0,37.0,66,29.91,10.0,West,9.2,-,N/A,,Overcast,270,2013-05-26 05:53:00
2:53 AM,46.9,37.0,68,29.89,10.0,West,8.1,-,N/A,,Mostly Cloudy,280,2013-05-26 06:53:00
3:53 AM,48.0,37.0,66,29.89,10.0,WNW,8.1,-,N/A,,Mostly Cloudy,290,2013-05-26 07:53:00
4:53 AM,48.0,36.0,63,29.89,10.0,West,8.1,-,N/A,,Partly Cloudy,270,2013-05-26 08:53:00
5:53 AM,48.0,37.0,66,29.92,10.0,West,6.9,-,N/A,,Mostly Cloudy,270,2013-05-26 09:53:00
6:53 AM,48.9,37.0,64,29.94,10.0,West,8.1,-,N/A,,Scattered Clouds,270,2013-05-26 10:53:00
7:53 AM,53.1,37.0,55,29.94,10.0,WNW,12.7,-,N/A,,Mostly Cloudy,300,2013-05-26 11:53:00
8:53 AM,53.1,37.9,57,29.96,10.0,WNW,9.2,-,N/A,,Mostly Cloudy,290,2013-05-26 12:53:00
9:53 AM,57.0,39.0,51,29.97,10.0,NNW,13.8,28.8,N/A,,Mostly Cloudy,330,2013-05-26 13:53:00
10:53 AM,57.9,39.0,49,29.97,10.0,NNW,17.3,26.5,N/A,,Mostly Cloudy,330,2013-05-26 14:53:00
11:19 AM,60.8,37.4,42,29.98,10.0,NNW,21.9,34.5,N/A,Thunderstorm,Thunderstorm,330,2013-05-26 15:19:00
11:21 AM,60.8,37.4,42,29.98,10.0,NNW,23.0,34.5,N/A,,Scattered Clouds,330,2013-05-26 15:21:00
11:53 AM,59.0,39.0,48,29.99,10.0,NW,16.1,31.1,N/A,,Clear,320,2013-05-26 15:53:00
12:53 PM,61.0,39.0,44,29.99,10.0,NNW,19.6,28.8,N/A,,Scattered Clouds,330,2013-05-26 16:53:00
1:53 PM,60.1,37.9,44,30.01,10.0,NNW,18.4,27.6,N/A,,Mostly Cloudy,330,2013-05-26 17:53:00
2:53 PM,62.1,37.9,41,30.01,10.0,NNW,21.9,29.9,N/A,,Partly Cloudy,330,2013-05-26 18:53:00
3:53 PM,61.0,37.9,42,30.02,10.0,NW,15.0,24.2,N/A,,Mostly Cloudy,310,2013-05-26 19:53:00
4:53 PM,61.0,35.1,38,30.05,10.0,NNW,16.1,28.8,N/A,,Mostly Cloudy,330,2013-05-26 20:53:00
5:53 PM,62.1,37.0,39,30.04,10.0,North,6.9,-,N/A,,Mostly Cloudy,350,2013-05-26 21:53:00
6:53 PM,62.1,33.1,34,30.07,10.0,NNW,16.1,25.3,N/A,,Mostly Cloudy,330,2013-05-26 22:53:00
7:53 PM,59.0,32.0,36,30.10,10.0,NW,9.2,17.3,N/A,,Clear,320,2013-05-26 23:53:00
8:53 PM,55.9,33.1,42,30.10,10.0,West,5.8,-,N/A,,Clear,280,2013-05-27 00:53:00
9:53 PM,52.0,34.0,50,30.13,10.0,West,4.6,-,N/A,,Clear,270,2013-05-27 01:53:00
10:53 PM,45.0,39.0,80,30.15,10.0,Calm,Calm,-,N/A,,Clear,0,2013-05-27 02:53:00
11:53 PM,43.0,39.9,89,30.16,10.0,Calm,Calm,-,N/A,,Clear,0,2013-05-27 03:53:00